• In Russia
  • List of Countries
  • For 7 days
  • Water Temperature
  • Satellite Maps
  • Weather Map
  • Weather Widgets
  • user-avatar
    Login

    Hourly Weather Wafra

    Today, 16 October, Tuesday

    Time Temperature Precipitation Wind Pressure Humidity
    00:00 +30°C° 0 mm 2 mps 746 mmHg 59%
    01:00 +29°C° 0 mm 2 mps 746 mmHg 58%
    02:00 +29°C° 0 mm 2 mps 746 mmHg 57%
    03:00 +29°C° 0 mm 2 mps 746 mmHg 55%
    04:00 +29°C° 0 mm 3 mps 746 mmHg 55%
    05:00 +29°C° 0 mm 3 mps 746 mmHg 55%
    06:00 +29°C° 0 mm 3 mps 746 mmHg 54%
    07:00 +31°C° 0 mm 3 mps 747 mmHg 47%
    08:00 +34°C° 0 mm 3 mps 747 mmHg 40%
    09:00 +36°C° 0 mm 3 mps 747 mmHg 32%
    10:00 +37°C° 0 mm 3 mps 747 mmHg 28%
    11:00 +38°C° 0 mm 2 mps 747 mmHg 23%
    12:00 +39°C° 0 mm 2 mps 746 mmHg 18%
    13:00 +39°C° 0 mm 2 mps 746 mmHg 18%
    14:00 +40°C° 0 mm 2 mps 746 mmHg 17%
    15:00 +40°C° 0 mm 3 mps 745 mmHg 16%
    16:00 +38°C° 0 mm 3 mps 745 mmHg 22%
    17:00 +36°C° 0 mm 3 mps 745 mmHg 27%
    18:00 +35°C° 0 mm 3 mps 745 mmHg 32%
    19:00 +34°C° 0 mm 3 mps 745 mmHg 34%
    20:00 +33°C° 0 mm 3 mps 745 mmHg 37%
    21:00 +33°C° 0 mm 3 mps 745 mmHg 40%
    22:00 +31°C° 0 mm 3 mps 745 mmHg 39%
    23:00 +32°C° 0 mm 4 mps 745 mmHg 38%

    Tomorrow, 17 October, Wednesday

    Time Temperature Precipitation Wind Pressure Humidity
    00:00 +32°C° 0 mm 4 mps 745 mmHg 38%
    01:00 +32°C° 0 mm 4 mps 745 mmHg 37%
    02:00 +30°C° 0 mm 4 mps 745 mmHg 37%
    03:00 +30°C° 0 mm 4 mps 745 mmHg 36%
    04:00 +30°C° 0 mm 4 mps 745 mmHg 36%
    05:00 +30°C° 0 mm 4 mps 745 mmHg 36%
    06:00 +29°C° 0 mm 4 mps 745 mmHg 37%
    07:00 +32°C° 0 mm 4 mps 745 mmHg 32%
    08:00 +34°C° 0 mm 4 mps 746 mmHg 26%
    09:00 +36°C° 0 mm 4 mps 746 mmHg 21%
    10:00 +37°C° 0 mm 3 mps 746 mmHg 19%
    11:00 +38°C° 0 mm 3 mps 746 mmHg 17%
    12:00 +39°C° 0 mm 2 mps 745 mmHg 15%
    13:00 +39°C° 0 mm 3 mps 745 mmHg 16%
    14:00 +39°C° 0 mm 3 mps 745 mmHg 16%
    15:00 +40°C° 0 mm 4 mps 744 mmHg 17%
    16:00 +38°C° 0 mm 4 mps 744 mmHg 23%
    17:00 +36°C° 0 mm 5 mps 744 mmHg 28%
    18:00 +34°C° 0 mm 5 mps 744 mmHg 34%
    19:00 +34°C° 0 mm 5 mps 744 mmHg 38%
    20:00 +33°C° 0 mm 5 mps 745 mmHg 41%
    21:00 +32°C° 0 mm 4 mps 745 mmHg 45%
    22:00 +32°C° 0 mm 4 mps 745 mmHg 46%
    23:00 +30°C° 0 mm 4 mps 745 mmHg 47%

    Day after tomorrow, 18 October, Thursday

    Time Temperature Precipitation Wind Pressure Humidity
    00:00 +30°C° 0 mm 4 mps 745 mmHg 48%
    01:00 +29°C° 0 mm 4 mps 745 mmHg 49%
    02:00 +29°C° 0 mm 4 mps 745 mmHg 51%
    03:00 +28°C° 0 mm 4 mps 745 mmHg 52%
    04:00 +28°C° 0 mm 3 mps 745 mmHg 53%
    05:00 +28°C° 0 mm 3 mps 745 mmHg 54%
    06:00 +27°C° 0 mm 3 mps 745 mmHg 55%
    07:00 +29°C° 0 mm 3 mps 745 mmHg 48%
    08:00 +31°C° 0 mm 2 mps 746 mmHg 41%
    09:00 +32°C° 0 mm 2 mps 746 mmHg 35%
    10:00 +35°C° 0 mm 2 mps 746 mmHg 30%
    11:00 +36°C° 0 mm 2 mps 746 mmHg 26%
    12:00 +37°C° 0 mm 2 mps 745 mmHg 21%
    13:00 +37°C° 0 mm 3 mps 745 mmHg 22%
    14:00 +37°C° 0 mm 4 mps 745 mmHg 24%
    15:00 +38°C° 0 mm 4 mps 744 mmHg 25%
    16:00 +36°C° 0 mm 4 mps 744 mmHg 33%
    17:00 +34°C° 0 mm 4 mps 745 mmHg 42%
    18:00 +33°C° 0 mm 4 mps 745 mmHg 51%
    19:00 +32°C° 0 mm 4 mps 745 mmHg 53%
    20:00 +30°C° 0 mm 4 mps 745 mmHg 56%
    21:00 +30°C° 0 mm 3 mps 746 mmHg 58%
    22:00 +29°C° 0 mm 3 mps 746 mmHg 59%
    23:00 +29°C° 0 mm 3 mps 745 mmHg 60%

    19 October, Friday

    Time Temperature Precipitation Wind Pressure Humidity
    00:00 +29°C° 0 mm 3 mps 745 mmHg 61%
    01:00 +28°C° 0 mm 3 mps 745 mmHg 62%
    02:00 +28°C° 0 mm 3 mps 745 mmHg 62%
    03:00 +28°C° 0 mm 3 mps 745 mmHg 62%
    04:00 +28°C° 0 mm 2 mps 745 mmHg 61%
    05:00 +27°C° 0 mm 2 mps 745 mmHg 60%
    06:00 +27°C° 0 mm 2 mps 746 mmHg 59%
    07:00 +29°C° 0 mm 2 mps 746 mmHg 52%
    08:00 +31°C° 0 mm 1 mps 747 mmHg 44%
    09:00 +32°C° 0 mm 1 mps 747 mmHg 36%
    10:00 +35°C° 0 mm 2 mps 747 mmHg 32%
    11:00 +36°C° 0 mm 2 mps 746 mmHg 27%
    12:00 +37°C° 0 mm 2 mps 746 mmHg 23%
    13:00 +37°C° 0 mm 3 mps 746 mmHg 23%
    14:00 +37°C° 0 mm 4 mps 745 mmHg 23%
    15:00 +39°C° 0 mm 5 mps 745 mmHg 23%
    16:00 +36°C° 0 mm 4 mps 745 mmHg 30%
    17:00 +34°C° 0 mm 4 mps 745 mmHg 37%
    18:00 +33°C° 0 mm 4 mps 746 mmHg 44%
    19:00 +32°C° 0 mm 4 mps 746 mmHg 48%
    20:00 +30°C° 0 mm 4 mps 746 mmHg 51%
    21:00 +30°C° 0 mm 3 mps 747 mmHg 55%
    22:00 +30°C° 0 mm 3 mps 747 mmHg 55%
    23:00 +29°C° 0 mm 4 mps 746 mmHg 56%

    20 October, Saturday

    Time Temperature Precipitation Wind Pressure Humidity
    00:00 +29°C° 0 mm 4 mps 746 mmHg 57%
    01:00 +29°C° 0 mm 4 mps 746 mmHg 57%
    02:00 +29°C° 0 mm 3 mps 746 mmHg 58%
    03:00 +28°C° 0 mm 3 mps 746 mmHg 58%
    04:00 +28°C° 0 mm 3 mps 746 mmHg 58%
    05:00 +28°C° 0 mm 3 mps 746 mmHg 58%
    06:00 +28°C° 0 mm 3 mps 747 mmHg 58%
    07:00 +29°C° 0 mm 2 mps 747 mmHg 51%
    08:00 +31°C° 0 mm 2 mps 747 mmHg 44%
    09:00 +34°C° 0 mm 2 mps 748 mmHg 36%
    10:00 +35°C° 0 mm 2 mps 747 mmHg 32%
    11:00 +36°C° 0 mm 3 mps 747 mmHg 28%
    12:00 +37°C° 0 mm 3 mps 746 mmHg 23%
    13:00 +37°C° 0 mm 3 mps 746 mmHg 23%
    14:00 +37°C° 0 mm 3 mps 746 mmHg 22%
    15:00 +38°C° 0 mm 4 mps 746 mmHg 21%
    16:00 +36°C° 0 mm 4 mps 746 mmHg 28%
    17:00 +35°C° 0 mm 4 mps 746 mmHg 35%
    18:00 +33°C° 0 mm 5 mps 746 mmHg 43%
    19:00 +32°C° 0 mm 4 mps 746 mmHg 48%
    20:00 +32°C° 0 mm 4 mps 746 mmHg 53%
    21:00 +30°C° 0 mm 4 mps 747 mmHg 58%
    22:00 +29°C° 0 mm 4 mps 746 mmHg 58%
    23:00 +29°C° 0 mm 3 mps 746 mmHg 59%

    21 October, Sunday

    Time Temperature Precipitation Wind Pressure Humidity
    00:00 +29°C° 0 mm 3 mps 746 mmHg 59%
    01:00 +28°C° 0 mm 3 mps 746 mmHg 59%
    02:00 +28°C° 0 mm 3 mps 746 mmHg 59%
    03:00 +28°C° 0 mm 3 mps 746 mmHg 58%
    04:00 +27°C° 0 mm 3 mps 746 mmHg 58%
    05:00 +27°C° 0 mm 3 mps 746 mmHg 57%
    06:00 +27°C° 0 mm 3 mps 747 mmHg 56%
    07:00 +29°C° 0 mm 4 mps 747 mmHg 50%
    08:00 +30°C° 0 mm 4 mps 747 mmHg 44%
    09:00 +33°C° 0 mm 5 mps 747 mmHg 38%
    10:00 +34°C° 0 mm 4 mps 747 mmHg 33%
    11:00 +36°C° 0 mm 4 mps 747 mmHg 28%
    12:00 +37°C° 0 mm 4 mps 746 mmHg 22%
    13:00 +37°C° 0 mm 4 mps 746 mmHg 22%
    14:00 +37°C° 0 mm 4 mps 746 mmHg 22%
    15:00 +37°C° 0 mm 4 mps 745 mmHg 22%
    16:00 +36°C° 0 mm 5 mps 746 mmHg 30%
    17:00 +34°C° 0 mm 6 mps 746 mmHg 39%
    18:00 +33°C° 0 mm 6 mps 746 mmHg 47%
    19:00 +32°C° 0 mm 6 mps 746 mmHg 51%
    20:00 +32°C° 0 mm 6 mps 746 mmHg 54%
    21:00 +30°C° 0 mm 6 mps 746 mmHg 58%
    22:00 +30°C° 0 mm 6 mps 746 mmHg 59%
    23:00 +29°C° 0 mm 5 mps 746 mmHg 61%
    Show more